TOM2FT LGKO-EGCC

Flight info

Callsign TOM2FT
Flight time N/A
Altitude 36000
Route LARKI UL609 MES DCT KOROS DCT DISOR DCT LONTA UL608 DOLEV DCT YUYUH DCT GENLU DCT PODOB DCT BOSNA DCT MARIL DCT KUSIB DCT GORPA DCT MODSA DCT BABEG DCT LIRSU DCT DENUT L610 LAM UN57 WELIN T420 ELVOS
Aircraft B738/M-SDE2E3FGHIRWXY/LB1

Departure

Time N/A
Airport Kos International Airport "Ippokratis" (LGKO)

Arrival

Time 2026-05-07 22:15
Airport Manchester Airport (EGCC)
Time Latitude Longitude Altitude Speed Heading
2026-05-07 21:04 49.62233 7.69579 36073 ft 436 kts 304°
2026-05-07 21:04 49.65744 7.62020 36071 ft 436 kts 304°
2026-05-07 21:05 49.69263 7.54420 36077 ft 434 kts 303°
2026-05-07 21:05 49.72768 7.46828 36075 ft 433 kts 303°
2026-05-07 21:06 49.76257 7.39247 36070 ft 432 kts 303°
2026-05-07 21:06 49.79731 7.31678 36075 ft 431 kts 303°
2026-05-07 21:07 49.82614 7.25383 36069 ft 430 kts 303°
2026-05-07 21:07 49.86066 7.17817 36078 ft 429 kts 303°
2026-05-07 21:08 49.89511 7.10253 36069 ft 429 kts 303°
2026-05-07 21:08 49.92941 7.02702 36074 ft 428 kts 303°
2026-05-07 21:09 49.96365 6.95135 36067 ft 428 kts 303°
2026-05-07 21:09 49.99786 6.87558 36066 ft 429 kts 303°
2026-05-07 21:10 50.03210 6.79958 36061 ft 430 kts 303°
2026-05-07 21:10 50.06638 6.72314 36057 ft 431 kts 303°
2026-05-07 21:11 50.10052 6.64683 36053 ft 433 kts 303°
2026-05-07 21:11 50.15214 6.53107 36069 ft 434 kts 302°
2026-05-07 21:12 50.18665 6.45344 36063 ft 435 kts 302°
2026-05-07 21:12 50.21934 6.37395 36063 ft 434 kts 299°
2026-05-07 21:13 50.25058 6.29312 36062 ft 434 kts 299°
2026-05-07 21:13 50.28167 6.21279 36064 ft 434 kts 299°
2026-05-07 21:14 50.31310 6.13218 36064 ft 433 kts 299°
2026-05-07 21:14 50.34451 6.05170 36065 ft 432 kts 299°
2026-05-07 21:15 50.37582 5.97130 36066 ft 432 kts 299°
2026-05-07 21:15 50.40700 5.89100 36077 ft 431 kts 299°
2026-05-07 21:16 50.43788 5.81123 36088 ft 430 kts 299°
2026-05-07 21:16 50.46885 5.73093 36091 ft 430 kts 299°
2026-05-07 21:17 50.49979 5.65049 36098 ft 430 kts 299°
2026-05-07 21:17 50.53071 5.56990 36105 ft 431 kts 299°
2026-05-07 21:18 50.56155 5.48917 36101 ft 431 kts 299°
2026-05-07 21:18 50.59246 5.40801 36100 ft 432 kts 298°
2026-05-07 21:19 50.62316 5.32714 36105 ft 433 kts 298°
2026-05-07 21:19 50.65405 5.24557 36102 ft 434 kts 298°
2026-05-07 21:20 50.68493 5.16375 36103 ft 434 kts 298°
2026-05-07 21:20 50.71575 5.08178 36102 ft 435 kts 298°
2026-05-07 21:21 50.74661 4.99955 36103 ft 435 kts 298°
2026-05-07 21:21 50.77742 4.91717 36102 ft 435 kts 298°
2026-05-07 21:22 50.80815 4.83466 36101 ft 436 kts 298°
2026-05-07 21:22 50.83887 4.75196 36103 ft 436 kts 298°
2026-05-07 21:23 50.86934 4.66966 36102 ft 436 kts 298°
2026-05-07 21:23 50.89997 4.58671 36102 ft 436 kts 298°
2026-05-07 21:24 50.93049 4.50373 36104 ft 435 kts 298°
2026-05-07 21:24 50.96098 4.42059 36096 ft 435 kts 298°
2026-05-07 21:25 50.99127 4.33769 36103 ft 434 kts 298°
2026-05-07 21:25 51.02152 4.25467 36102 ft 434 kts 298°
2026-05-07 21:26 51.05170 4.17152 36101 ft 434 kts 298°
2026-05-07 21:26 51.08166 4.08874 36102 ft 434 kts 298°
2026-05-07 21:27 51.11170 4.00546 36100 ft 434 kts 297°
2026-05-07 21:27 51.14176 3.92183 36092 ft 435 kts 297°
2026-05-07 21:28 51.17179 3.83810 36093 ft 435 kts 297°
2026-05-07 21:28 51.20155 3.75476 36092 ft 435 kts 297°
2026-05-07 21:29 51.23081 3.67049 36083 ft 433 kts 292°
2026-05-07 21:29 51.24752 3.57892 36110 ft 429 kts 279°
2026-05-07 21:30 51.25910 3.48521 36103 ft 430 kts 280°
2026-05-07 21:30 51.27136 3.39177 36101 ft 430 kts 280°
2026-05-07 21:31 51.28349 3.29830 36102 ft 430 kts 280°
2026-05-07 21:31 51.29545 3.20461 36101 ft 430 kts 279°
2026-05-07 21:32 51.30736 3.11088 36105 ft 430 kts 279°
2026-05-07 21:32 51.31915 3.01769 36102 ft 430 kts 279°
2026-05-07 21:33 51.33090 2.92397 36100 ft 430 kts 279°
2026-05-07 21:33 51.34261 2.83022 36102 ft 430 kts 279°
2026-05-07 21:34 51.35422 2.73645 36103 ft 430 kts 279°
2026-05-07 21:34 51.36580 2.64258 36102 ft 429 kts 279°
2026-05-07 21:35 51.37730 2.54884 36103 ft 429 kts 279°
2026-05-07 21:35 51.38875 2.45492 36105 ft 429 kts 279°
2026-05-07 21:36 51.40005 2.36158 36099 ft 429 kts 279°
2026-05-07 21:36 51.41133 2.26774 36100 ft 428 kts 279°
2026-05-07 21:37 51.42273 2.17411 36098 ft 428 kts 279°
2026-05-07 21:37 51.43416 2.08060 36104 ft 427 kts 279°
2026-05-07 21:38 51.44546 1.98709 36103 ft 427 kts 279°
2026-05-07 21:38 51.45649 1.89348 36100 ft 427 kts 279°
2026-05-07 21:39 51.46732 1.80037 36102 ft 427 kts 278°
2026-05-07 21:39 51.47814 1.70653 36102 ft 427 kts 278°
2026-05-07 21:40 51.48890 1.61281 36099 ft 427 kts 278°
2026-05-07 21:40 51.49956 1.51898 36104 ft 427 kts 278°
2026-05-07 21:41 51.51016 1.42495 36103 ft 427 kts 278°
2026-05-07 21:41 51.52062 1.33156 36103 ft 427 kts 278°
2026-05-07 21:42 51.53109 1.23751 36103 ft 428 kts 278°
2026-05-07 21:42 51.54148 1.14344 36102 ft 428 kts 278°
2026-05-07 21:43 51.55179 1.04929 36099 ft 428 kts 278°
2026-05-07 21:43 51.56203 0.95499 36104 ft 428 kts 278°
2026-05-07 21:44 51.57218 0.86073 36102 ft 428 kts 278°
2026-05-07 21:44 51.58226 0.76633 36104 ft 428 kts 278°
2026-05-07 21:45 51.59225 0.67240 36100 ft 429 kts 278°
2026-05-07 21:45 51.60225 0.57734 36102 ft 429 kts 278°
2026-05-07 21:46 51.61204 0.48328 36100 ft 429 kts 277°
2026-05-07 21:46 51.62185 0.38860 36105 ft 428 kts 277°
2026-05-07 21:47 51.63159 0.29393 36102 ft 428 kts 278°
2026-05-07 21:47 51.64219 0.19963 36090 ft 429 kts 285°
2026-05-07 21:48 51.65343 0.15501 36110 ft 431 kts 296°
2026-05-07 21:48 51.66923 0.11382 36100 ft 434 kts 305°
2026-05-07 21:48 51.71066 0.04268 36099 ft 436 kts 312°
2026-05-07 21:49 51.74963 -0.01981 36104 ft 436 kts 312°
2026-05-07 21:49 51.79245 -0.08931 36093 ft 437 kts 312°
2026-05-07 21:50 51.83506 -0.15954 36091 ft 438 kts 311°
2026-05-07 21:50 51.85646 -0.19504 35671 ft 445 kts 311°
2026-05-07 21:50 51.87789 -0.23063 35338 ft 439 kts 311°
2026-05-07 21:51 51.89912 -0.26592 34888 ft 436 kts 311°
2026-05-07 21:51 51.92018 -0.30099 34472 ft 432 kts 311°
2026-05-07 21:51 51.94102 -0.33574 34052 ft 429 kts 311°
2026-05-07 21:51 51.96169 -0.37024 33638 ft 425 kts 311°
2026-05-07 21:52 51.98217 -0.40449 33226 ft 421 kts 311°
2026-05-07 21:52 52.00250 -0.43855 32819 ft 418 kts 311°
2026-05-07 21:52 52.02244 -0.47199 32422 ft 415 kts 311°
2026-05-07 21:52 52.04242 -0.50555 32019 ft 412 kts 311°
2026-05-07 21:53 52.06221 -0.53884 31622 ft 408 kts 311°
2026-05-07 21:53 52.08188 -0.57197 31230 ft 405 kts 311°
2026-05-07 21:53 52.10141 -0.60489 30840 ft 402 kts 311°
2026-05-07 21:53 52.12080 -0.63762 30452 ft 399 kts 311°
2026-05-07 21:54 52.14000 -0.67006 30069 ft 396 kts 311°
2026-05-07 21:54 52.15904 -0.70230 29690 ft 393 kts 311°
2026-05-07 21:54 52.17796 -0.73440 29292 ft 390 kts 311°
2026-05-07 21:54 52.19673 -0.76626 28905 ft 388 kts 311°
2026-05-07 21:55 52.20906 -0.78720 28638 ft 386 kts 311°
2026-05-07 21:55 52.23380 -0.82926 28112 ft 383 kts 311°
2026-05-07 21:55 52.24647 -0.84933 27852 ft 383 kts 317°
2026-05-07 21:55 52.27545 -0.88216 27342 ft 382 kts 326°
2026-05-07 21:56 52.29086 -0.89725 27076 ft 381 kts 327°
2026-05-07 21:56 52.31362 -0.91925 26688 ft 379 kts 327°
2026-05-07 21:56 52.33591 -0.94091 26312 ft 376 kts 326°
2026-05-07 21:56 52.35833 -0.96293 25928 ft 374 kts 326°
2026-05-07 21:57 52.38053 -0.98493 25549 ft 372 kts 326°
2026-05-07 21:57 52.40265 -1.00699 25169 ft 370 kts 326°
2026-05-07 21:57 52.42454 -1.02889 24791 ft 368 kts 326°
2026-05-07 21:57 52.44636 -1.05074 24415 ft 366 kts 326°
2026-05-07 21:58 52.46800 -1.07245 24044 ft 364 kts 326°
2026-05-07 21:58 52.48956 -1.09409 23673 ft 362 kts 326°
2026-05-07 21:58 52.51100 -1.11565 23298 ft 360 kts 326°
2026-05-07 21:58 52.53234 -1.13714 22929 ft 359 kts 326°
2026-05-07 21:59 52.55353 -1.15849 22561 ft 357 kts 326°
2026-05-07 21:59 52.57469 -1.17982 22197 ft 355 kts 326°
2026-05-07 21:59 52.59568 -1.20099 21829 ft 353 kts 326°
2026-05-07 21:59 52.61656 -1.22208 21470 ft 351 kts 326°
2026-05-07 22:00 52.63736 -1.24312 21114 ft 350 kts 326°
2026-05-07 22:00 52.65800 -1.26402 20761 ft 348 kts 326°
2026-05-07 22:00 52.67855 -1.28485 20406 ft 346 kts 326°
2026-05-07 22:00 52.69874 -1.30533 20060 ft 344 kts 326°
2026-05-07 22:01 52.71911 -1.32603 19647 ft 345 kts 326°
2026-05-07 22:01 52.73952 -1.34680 19236 ft 345 kts 326°
2026-05-07 22:01 52.75994 -1.36763 18824 ft 345 kts 326°
2026-05-07 22:01 52.78038 -1.38849 18410 ft 345 kts 326°
2026-05-07 22:02 52.80081 -1.40937 17993 ft 345 kts 326°
2026-05-07 22:02 52.82118 -1.43021 17584 ft 344 kts 326°
2026-05-07 22:02 52.84150 -1.45101 17171 ft 344 kts 326°
2026-05-07 22:02 52.86182 -1.47184 16762 ft 343 kts 326°
2026-05-07 22:03 52.88213 -1.49268 16351 ft 343 kts 326°
2026-05-07 22:03 52.90242 -1.51353 15941 ft 343 kts 326°
2026-05-07 22:03 52.92266 -1.53434 15527 ft 342 kts 326°
2026-05-07 22:03 52.94286 -1.55514 15119 ft 341 kts 326°
2026-05-07 22:04 52.96295 -1.57586 14717 ft 340 kts 326°
2026-05-07 22:04 52.98277 -1.59631 14312 ft 340 kts 326°
2026-05-07 22:04 53.00287 -1.61706 13914 ft 339 kts 326°
2026-05-07 22:04 53.02283 -1.63770 13528 ft 338 kts 326°
2026-05-07 22:05 53.04272 -1.65828 13129 ft 337 kts 326°
2026-05-07 22:05 53.06134 -1.68155 12699 ft 333 kts 310°
2026-05-07 22:05 53.07614 -1.71089 12334 ft 329 kts 306°
2026-05-07 22:05 53.09069 -1.74030 11932 ft 329 kts 307°
2026-05-07 22:06 53.10540 -1.76933 11541 ft 328 kts 308°
2026-05-07 22:06 53.12020 -1.79822 11145 ft 327 kts 308°
2026-05-07 22:06 53.13502 -1.82702 10743 ft 327 kts 308°
2026-05-07 22:06 53.14978 -1.85571 10352 ft 325 kts 308°
2026-05-07 22:07 53.16450 -1.88435 9977 ft 324 kts 308°
2026-05-07 22:07 53.17882 -1.91220 9979 ft 310 kts 308°
2026-05-07 22:07 53.19297 -1.93836 9924 ft 299 kts 318°
2026-05-07 22:07 53.21138 -1.95350 9702 ft 298 kts 349°
2026-05-07 22:08 53.23168 -1.95495 9456 ft 294 kts 360°
2026-05-07 22:08 53.25193 -1.95455 9140 ft 288 kts
2026-05-07 22:08 53.27183 -1.95406 8831 ft 283 kts
2026-05-07 22:08 53.29141 -1.95354 8527 ft 280 kts
2026-05-07 22:09 53.31069 -1.95297 8229 ft 278 kts
2026-05-07 22:09 53.33018 -1.95237 7858 ft 278 kts
2026-05-07 22:09 53.34960 -1.95179 7356 ft 279 kts
2026-05-07 22:09 53.36903 -1.95118 6854 ft 280 kts
2026-05-07 22:10 53.38855 -1.95055 6361 ft 280 kts
2026-05-07 22:10 53.40779 -1.94996 5873 ft 281 kts
2026-05-07 22:10 53.42733 -1.94938 5366 ft 280 kts
2026-05-07 22:10 53.44684 -1.94890 4871 ft 279 kts 359°
2026-05-07 22:11 53.46557 -1.95606 4330 ft 278 kts 327°
2026-05-07 22:11 53.47868 -1.97854 3850 ft 269 kts 292°
2026-05-07 22:11 53.48189 -2.00845 3343 ft 258 kts 257°
2026-05-07 22:11 53.47435 -2.03387 3092 ft 236 kts 221°
2026-05-07 22:12 53.46279 -2.05179 3031 ft 219 kts 224°
2026-05-07 22:12 53.45320 -2.07044 2999 ft 203 kts 227°
2026-05-07 22:12 53.44444 -2.08853 2815 ft 195 kts 227°
2026-05-07 22:12 53.43591 -2.10613 2554 ft 193 kts 227°
2026-05-07 22:13 53.42754 -2.12328 2304 ft 191 kts 228°
2026-05-07 22:13 53.41901 -2.14078 2056 ft 192 kts 229°
2026-05-07 22:13 53.41074 -2.15780 1807 ft 189 kts 230°
2026-05-07 22:13 53.40248 -2.17475 1554 ft 185 kts 230°
2026-05-07 22:14 53.39458 -2.19100 1314 ft 175 kts 231°
2026-05-07 22:14 53.38697 -2.20666 1089 ft 171 kts 231°
2026-05-07 22:14 53.37975 -2.22151 890 ft 157 kts 231°
2026-05-07 22:14 53.37305 -2.23528 658 ft 148 kts 231°
2026-05-07 22:15 53.36662 -2.24837 434 ft 144 kts 231°
2026-05-07 22:15 53.36041 -2.26121 290 ft 137 kts 231°
2026-05-07 22:15 53.35498 -2.27256 248 ft 107 kts 231°
2026-05-07 22:15 53.35284 -2.27739 237 ft 27 kts 247°
2026-05-07 22:16 53.35242 -2.28035 231 ft 19 kts 261°
2026-05-07 22:16 53.35232 -2.28162 230 ft 0 kts 275°
2026-05-07 22:16 53.35238 -2.28186 230 ft 7 kts 303°
2026-05-07 22:16 53.35296 -2.28211 232 ft 10 kts 11°
2026-05-07 22:17 53.35390 -2.28167 236 ft 18 kts 11°
2026-05-07 22:17 53.35537 -2.28068 234 ft 28 kts 44°
2026-05-07 22:17 53.35667 -2.27893 242 ft 21 kts
2026-05-07 22:17 53.35824 -2.27863 250 ft 20 kts
2026-05-07 22:18 53.35964 -2.27867 254 ft 21 kts 329°
2026-05-07 22:18 53.36194 -2.28222 254 ft 23 kts 315°
2026-05-07 22:18 53.36301 -2.28403 254 ft 21 kts 315°
2026-05-07 22:19 53.36424 -2.28491 254 ft 16 kts 332°
2026-05-07 22:19 53.36497 -2.28618 254 ft 15 kts 316°
2026-05-07 22:19 53.36568 -2.28739 254 ft 14 kts 315°
2026-05-07 22:19 53.36647 -2.28753 254 ft 14 kts 48°
2026-05-07 22:20 53.36713 -2.28643 254 ft 13 kts 42°
2026-05-07 22:20 53.36777 -2.28538 254 ft 13 kts 44°
2026-05-07 22:20 53.36835 -2.28554 254 ft 10 kts 313°
2026-05-07 22:20 53.36851 -2.28582 254 ft 1 kts 315°
2026-05-07 22:21 53.36859 -2.28596 254 ft 0 kts 315°
2026-05-07 22:21 53.36860 -2.28597 254 ft 0 kts 315°